Location: Charlotte
(35.2269°N, 80.8433°W)
Time: 03:05:46
(UTC-04:00)

ISS - Visible Passes

Search period start: 30 March 2015 00:00
Search period end: 09 April 2015 00:00
Orbit: 396 x 406 km, 51.6° (Epoch: 29 March)

Date Brightness Start Highest point End Pass type
(mag) Time Alt. Az. Time Alt. Az. Time Alt. Az.
30 Mar -1.2 05:35:23 14° NNW 05:37:30 26° NE 05:40:17 10° E visible
31 Mar -0.1 04:44:49 14° NE 04:44:49 14° NE 04:45:56 10° ENE visible
31 Mar -3.3 06:17:27 11° NW 06:20:33 56° SW 06:23:41 10° SE visible
01 Apr -2.9 05:27:10 61° NE 05:27:10 61° NE 05:30:18 10° ESE visible
02 Apr -2.0 06:09:52 21° SW 06:09:52 21° SW 06:12:18 10° S visible
02 Apr -3.0 21:07:05 10° SSW 21:09:53 46° SSE 21:09:53 46° SSE visible
03 Apr -2.0 20:14:15 10° S 20:16:49 22° SE 20:19:26 10° ENE visible
03 Apr -1.3 21:50:13 10° W 21:52:44 28° NW 21:52:44 28° NW visible
04 Apr -2.8 20:56:17 10° WSW 20:59:29 59° NW 21:02:34 11° NE visible
05 Apr -0.4 21:40:32 10° WNW 21:42:37 15° NNW 21:44:38 10° N visible
06 Apr -1.1 20:45:59 10° W 20:48:47 26° NW 20:51:35 10° NNE visible
08 Apr -0.4 20:36:16 10° WNW 20:38:08 14° NNW 20:39:57 10° N visible
